When you browse on this site, cookies collect data to enhance your experience and personalize the content and advertising you see.
Visit our Privacy Policy to learn more. By continuing to use the site, you agree to this use of cookies and data.
  • In Switzerland
  • List of Countries
  • For 7 days
  • Water Temperature
  • Weather Map
  • Weather Widgets
  • user-avatar
    Login

    Hourly Weather Grenoble

    Today, 31 May, Sunday

    Time Temperature Precipitation Wind Pressure Humidity
    00:00 +13°C° 0 mm 1 mps 740 mmHg 91%
    01:00 +13°C° 0 mm 1 mps 740 mmHg 91%
    02:00 +13°C° 0 mm 1 mps 740 mmHg 92%
    03:00 +13°C° 0 mm 1 mps 740 mmHg 92%
    04:00 +13°C° 0 mm 0 mps 740 mmHg 87%
    05:00 +14°C° 0 mm 0 mps 740 mmHg 83%
    06:00 +16°C° 0 mm 0 mps 740 mmHg 78%
    07:00 +18°C° 0 mm 0 mps 740 mmHg 70%
    08:00 +22°C° 0 mm 1 mps 740 mmHg 62%
    09:00 +24°C° 0 mm 1 mps 740 mmHg 54%
    10:00 +25°C° 0 mm 1 mps 740 mmHg 53%
    11:00 +25°C° 0 mm 1 mps 740 mmHg 51%
    12:00 +26°C° 0 mm 1 mps 740 mmHg 50%
    13:00 +25°C° 0.1 mm 1 mps 740 mmHg 51%
    14:00 +25°C° 0.1 mm 1 mps 740 mmHg 53%
    15:00 +25°C° 0.1 mm 1 mps 740 mmHg 55%
    16:00 +24°C° 0.1 mm 1 mps 740 mmHg 61%
    17:00 +23°C° 0.1 mm 1 mps 740 mmHg 67%
    18:00 +23°C° 0.1 mm 1 mps 739 mmHg 73%
    19:00 +21°C° 0 mm 1 mps 740 mmHg 77%
    20:00 +19°C° 0 mm 1 mps 740 mmHg 81%
    21:00 +16°C° 0 mm 1 mps 741 mmHg 85%
    22:00 +16°C° 0 mm 1 mps 741 mmHg 87%
    23:00 +15°C° 0 mm 1 mps 741 mmHg 89%

    Tomorrow, 1 June, Monday

    Time Temperature Precipitation Wind Pressure Humidity
    00:00 +15°C° 0 mm 1 mps 741 mmHg 90%
    01:00 +14°C° 0 mm 1 mps 741 mmHg 90%
    02:00 +14°C° 0 mm 1 mps 741 mmHg 90%
    03:00 +14°C° 0 mm 1 mps 741 mmHg 90%
    04:00 +15°C° 0 mm 1 mps 741 mmHg 85%
    05:00 +18°C° 0 mm 1 mps 741 mmHg 81%
    06:00 +17°C° 0 mm 0 mps 741 mmHg 77%
    07:00 +22°C° 0 mm 1 mps 741 mmHg 69%
    08:00 +24°C° 0 mm 1 mps 741 mmHg 61%
    09:00 +26°C° 0 mm 1 mps 742 mmHg 52%
    10:00 +27°C° 0 mm 1 mps 741 mmHg 51%
    11:00 +27°C° 0 mm 2 mps 741 mmHg 50%
    12:00 +28°C° 0 mm 2 mps 741 mmHg 49%
    13:00 +27°C° 0.4 mm 2 mps 741 mmHg 55%
    14:00 +26°C° 0.4 mm 2 mps 741 mmHg 60%
    15:00 +26°C° 0.4 mm 2 mps 741 mmHg 66%
    16:00 +25°C° 0.5 mm 1 mps 740 mmHg 72%
    17:00 +24°C° 0.5 mm 1 mps 740 mmHg 78%
    18:00 +23°C° 0.5 mm 1 mps 740 mmHg 84%
    19:00 +21°C° 0.1 mm 1 mps 741 mmHg 85%
    20:00 +20°C° 0.1 mm 1 mps 741 mmHg 87%
    21:00 +19°C° 0.1 mm 1 mps 742 mmHg 88%
    22:00 +19°C° 0 mm 1 mps 741 mmHg 89%
    23:00 +18°C° 0 mm 1 mps 741 mmHg 90%

    Day after tomorrow, 2 June, Tuesday

    Time Temperature Precipitation Wind Pressure Humidity
    00:00 +18°C° 0 mm 1 mps 741 mmHg 91%
    01:00 +16°C° 0 mm 1 mps 741 mmHg 91%
    02:00 +16°C° 0 mm 1 mps 741 mmHg 92%
    03:00 +16°C° 0 mm 1 mps 740 mmHg 92%
    04:00 +18°C° 0.1 mm 1 mps 740 mmHg 90%
    05:00 +19°C° 0.1 mm 1 mps 740 mmHg 89%
    06:00 +20°C° 0.1 mm 1 mps 740 mmHg 87%
    07:00 +21°C° 0.3 mm 1 mps 740 mmHg 83%
    08:00 +22°C° 0.3 mm 1 mps 740 mmHg 79%
    09:00 +23°C° 0.3 mm 1 mps 740 mmHg 75%
    10:00 +23°C° 0.8 mm 1 mps 740 mmHg 75%
    11:00 +23°C° 0.8 mm 1 mps 739 mmHg 76%
    12:00 +23°C° 0.8 mm 1 mps 739 mmHg 77%
    13:00 +23°C° 1.3 mm 1 mps 739 mmHg 79%
    14:00 +23°C° 1.3 mm 1 mps 738 mmHg 80%
    15:00 +23°C° 1.3 mm 1 mps 738 mmHg 82%
    16:00 +22°C° 1.5 mm 1 mps 738 mmHg 85%
    17:00 +22°C° 1.5 mm 1 mps 737 mmHg 88%
    18:00 +21°C° 1.5 mm 1 mps 737 mmHg 91%
    19:00 +20°C° 0.3 mm 1 mps 737 mmHg 91%
    20:00 +19°C° 0.3 mm 1 mps 737 mmHg 92%
    21:00 +16°C° 0.3 mm 1 mps 737 mmHg 92%
    22:00 +16°C° 0 mm 1 mps 737 mmHg 92%
    23:00 +15°C° 0 mm 1 mps 737 mmHg 92%

    3 June, Wednesday

    Time Temperature Precipitation Wind Pressure Humidity
    00:00 +15°C° 0 mm 1 mps 736 mmHg 93%
    01:00 +15°C° 0 mm 1 mps 736 mmHg 93%
    02:00 +15°C° 0 mm 1 mps 736 mmHg 93%
    03:00 +14°C° 0 mm 1 mps 736 mmHg 93%
    04:00 +16°C° 0 mm 1 mps 736 mmHg 92%
    05:00 +18°C° 0 mm 1 mps 736 mmHg 90%
    06:00 +17°C° 0 mm 0 mps 736 mmHg 89%
    07:00 +21°C° 0 mm 1 mps 736 mmHg 80%
    08:00 +23°C° 0 mm 1 mps 736 mmHg 70%
    09:00 +25°C° 0 mm 1 mps 736 mmHg 61%
    10:00 +25°C° 0.4 mm 1 mps 735 mmHg 64%
    11:00 +25°C° 0.4 mm 2 mps 735 mmHg 68%
    12:00 +25°C° 0.4 mm 2 mps 735 mmHg 71%
    13:00 +25°C° 1.1 mm 2 mps 734 mmHg 74%
    14:00 +25°C° 1.1 mm 2 mps 734 mmHg 76%
    15:00 +25°C° 1.1 mm 2 mps 734 mmHg 79%
    16:00 +24°C° 0.9 mm 2 mps 734 mmHg 83%
    17:00 +23°C° 0.9 mm 2 mps 734 mmHg 86%
    18:00 +23°C° 0.9 mm 2 mps 734 mmHg 89%
    19:00 +20°C° 0.3 mm 2 mps 735 mmHg 91%
    20:00 +19°C° 0.3 mm 2 mps 735 mmHg 92%
    21:00 +18°C° 0.3 mm 2 mps 736 mmHg 93%
    22:00 +18°C° 0 mm 2 mps 736 mmHg 93%
    23:00 +18°C° 0 mm 2 mps 736 mmHg 93%

    4 June, Thursday

    Time Temperature Precipitation Wind Pressure Humidity
    00:00 +18°C° 0 mm 1 mps 736 mmHg 92%
    01:00 +18°C° 0 mm 1 mps 736 mmHg 92%
    02:00 +18°C° 0 mm 1 mps 736 mmHg 91%
    03:00 +18°C° 0 mm 1 mps 736 mmHg 90%
    04:00 +19°C° 0 mm 1 mps 736 mmHg 89%
    05:00 +19°C° 0 mm 1 mps 736 mmHg 88%
    06:00 +20°C° 0 mm 1 mps 736 mmHg 87%
    07:00 +22°C° 0 mm 1 mps 736 mmHg 81%
    08:00 +23°C° 0 mm 1 mps 737 mmHg 75%
    09:00 +24°C° 0 mm 1 mps 737 mmHg 68%
    10:00 +26°C° 0.1 mm 2 mps 737 mmHg 65%
    11:00 +27°C° 0.1 mm 2 mps 737 mmHg 61%
    12:00 +28°C° 0.1 mm 3 mps 736 mmHg 57%
    13:00 +28°C° 0.4 mm 3 mps 736 mmHg 58%
    14:00 +28°C° 0.4 mm 3 mps 736 mmHg 59%
    15:00 +28°C° 0.4 mm 3 mps 736 mmHg 59%
    16:00 +27°C° 0.1 mm 2 mps 736 mmHg 65%
    17:00 +26°C° 0.1 mm 2 mps 736 mmHg 71%
    18:00 +25°C° 0.1 mm 2 mps 736 mmHg 76%
    19:00 +23°C° 0 mm 2 mps 736 mmHg 79%
    20:00 +21°C° 0 mm 2 mps 737 mmHg 82%
    21:00 +19°C° 0 mm 2 mps 737 mmHg 84%
    22:00 +19°C° 0 mm 2 mps 737 mmHg 84%
    23:00 +19°C° 0 mm 2 mps 737 mmHg 83%

    5 June, Friday

    Time Temperature Precipitation Wind Pressure Humidity
    00:00 +18°C° 0 mm 2 mps 736 mmHg 82%
    01:00 +18°C° 0 mm 2 mps 736 mmHg 81%
    02:00 +18°C° 0 mm 2 mps 736 mmHg 79%
    03:00 +18°C° 0 mm 2 mps 736 mmHg 78%
    04:00 +19°C° 0 mm 2 mps 736 mmHg 76%
    05:00 +20°C° 0 mm 2 mps 736 mmHg 73%
    06:00 +22°C° 0 mm 1 mps 736 mmHg 71%
    07:00 +24°C° 0 mm 2 mps 736 mmHg 62%
    08:00 +27°C° 0 mm 2 mps 736 mmHg 54%
    09:00 +29°C° 0 mm 2 mps 736 mmHg 46%
    10:00 +30°C° 0 mm 3 mps 736 mmHg 44%
    11:00 +31°C° 0 mm 3 mps 735 mmHg 41%
    12:00 +32°C° 0 mm 4 mps 735 mmHg 39%
    13:00 +32°C° 0 mm 4 mps 735 mmHg 41%
    14:00 +32°C° 0 mm 4 mps 735 mmHg 43%
    15:00 +32°C° 0 mm 4 mps 735 mmHg 44%
    16:00 +30°C° 0 mm 3 mps 735 mmHg 53%
    17:00 +28°C° 0 mm 3 mps 735 mmHg 62%
    18:00 +27°C° 0 mm 2 mps 735 mmHg 71%
    19:00 +25°C° 0.2 mm 2 mps 736 mmHg 76%
    20:00 +23°C° 0.2 mm 2 mps 736 mmHg 81%
    21:00 +20°C° 0.2 mm 2 mps 737 mmHg 87%
    22:00 +21°C° 0.1 mm 1 mps 737 mmHg 87%
    23:00 +21°C° 0.1 mm 1 mps 737 mmHg 87%
    Show more